+ View the NASA Portal
+ Center for Near-Earth Object Studies
IMPORTANT:
The SSD Announcement email list is now available. Major changes are coming in the near future, including possible hostname and/or URL changes. To be notified of such changes, subscribe to this email list.
Please visit
this page
for more details.
Don't show this message again
JPL Small-Body Database Browser
Search:
[
help
]
441231 (2007 VJ160)
Classification:
Main-belt Asteroid
SPK-ID:
2441231
[
Ephemeris
|
Orbit Diagram
|
Orbital Elements
|
Mission Design
|
Physical Parameters
|
Discovery Circumstances
]
[ show orbit diagram ]
Orbital Elements at Epoch 2458600.5 (2019-Apr-27.0) TDB
Reference:
JPL 16
(heliocentric ecliptic J2000)
Element
Value
Uncertainty (1-sigma)
Units
e
.2389330144963957
1.2824e-07
a
2.591223430560985
3.6621e-08
au
q
1.972094605063357
3.5729e-07
au
i
4.783469072693786
6.6701e-06
deg
node
178.7323526024091
5.8138e-05
deg
peri
170.3144737206773
6.3608e-05
deg
M
312.0377222941693
1.9412e-05
deg
t
p
2458803.479892658633
(2019-Nov-15.97989266)
8.4098e-05
TDB
period
1523.546521399352
4.17
3.2298e-05
8.843e-08
d
yr
n
.2362907826860095
5.0092e-09
deg/d
Q
3.210352256058613
4.5371e-08
au
Orbit Determination Parameters
# obs. used (total)
202
data-arc span
4838 days (13.25 yr)
first obs. used
2006-05-24
last obs. used
2019-08-22
planetary ephem.
DE431
SB-pert. ephem.
SB431-N16
condition code
0
norm. resid. RMS
.45876
source
ORB
producer
Otto Matic
solution date
2019-Sep-24 07:41:53
Additional Information
Earth MOID
= .965211 au
Jupiter MOID
= 2.22377 au
T_jup
= 3.374
[ show covariance matrix ]
[
Ephemeris
|
Orbit Diagram
|
Orbital Elements
|
Mission Design
|
Physical Parameters
|
Discovery Circumstances
]
Physical Parameter Table
Parameter
Symbol
Value
Units
Sigma
Reference
Notes
absolute magnitude
H
17.7
n/a
MPO353523
441231 (2007 VJ160)
Discovered 2007-Oct-20 by Mt. Lemmon Survey at Mount Lemmon
Reference:
Last Updated:
2015-09-02
[
Ephemeris
|
Orbit Diagram
|
Orbital Elements
|
Mission Design
|
Physical Parameters
|
Discovery Circumstances
]
2019-Dec-16 13:10 UT
(server date/time)
Site Manager:
Ryan S. Park
Webmaster
:
Alan B. Chamberlin